Weather History for Pella, IA

Change the Weather History Date:

Thursday, February 21, 2013

  Actual Average (KOXV) Record (KOXV)
Temperature  
Mean Temperature 22 °F -  
Max Temperature 26 °F 42 °F 67 °F (1991)
Min Temperature 18 °F 23 °F -7 °F (1963)
Degree Days  
Heating Degree Days 43    
Moisture  
Dew Point 17 °F    
Average Humidity 79    
Maximum Humidity 96    
Minimum Humidity 64    
Precipitation  
Precipitation 0.03 in - - ()
Sea Level Pressure  
Sea Level Pressure 30.11 in    
Wind  
Wind Speed 9 mph (East)    
Max Wind Speed 20 mph    
Max Gust Speed 29 mph    
Visibility 6 miles    
Events Snow    
Averages and records for this station are not official NWS values.
T = Trace of Precipitation, MM = Missing Value Source: NWS Daily Summary

Daily Weather History Graph

Daily Weather History Graph

Search for Another Location

Airport:

Trip Planner

Search our weather history database for the weather conditions in past years. The results will help you decide how hot, cold, wet, or windy it might be!

Date:

Astronomy

Feb. 21, 2013 Rise Set
Actual Time 6:57 AM CST 5:53 PM CST
Civil Twilight 6:29 AM CST 6:21 PM CST
Nautical Twilight 5:57 AM CST 6:53 PM CST
Astronomical Twilight 5:25 AM CST 7:25 PM CST
Moon 2:06 PM CST (2/21) 4:04 AM CST (2/21)
Length of Visible Light 11h 51m
Length of Day
10h 55m
Waxing Gibbous, 84% of the Moon is Illuminated
Feb 21
Waxing Gibbous
Feb 25
Full
Mar 4
Last Quarter
Mar 11
New
Mar 19
First Quarter

Hourly Weather History & Observations

Time (CST) Temp. Windchill Dew Point Humidity Pressure Visibility Wind Dir Wind Speed Gust Speed Precip Events Conditions
12:15 AM 20.7 °F 14.2 °F 10.8 °F 66% 30.32 in 10.0 mi ENE 4.6 mph - N/A   Clear
12:35 AM 20.3 °F 15.4 °F 11.1 °F 68% 30.32 in 10.0 mi East 3.5 mph - N/A   Clear
12:55 AM 20.3 °F 15.4 °F 11.3 °F 68% 30.32 in 10.0 mi East 3.5 mph - N/A   Clear
1:15 AM 19.9 °F 14.9 °F 11.5 °F 70% 30.33 in 10.0 mi East 3.5 mph - N/A   Clear
1:35 AM 19.4 °F 12.8 °F 11.8 °F 72% 30.33 in 10.0 mi East 4.6 mph - N/A   Clear
1:55 AM 19.0 °F 13.9 °F 11.8 °F 74% 30.34 in 10.0 mi East 3.5 mph - N/A   Clear
2:15 AM 19.2 °F 12.5 °F 12.2 °F 74% 30.33 in 10.0 mi East 4.6 mph - N/A   Scattered Clouds
2:35 AM 19.4 °F 11.5 °F 12.6 °F 75% 30.32 in 10.0 mi ENE 5.8 mph - N/A   Scattered Clouds
2:55 AM 19.4 °F 10.4 °F 13.1 °F 76% 30.30 in 10.0 mi ENE 6.9 mph - N/A   Clear
3:15 AM 19.4 °F 8.6 °F 13.5 °F 78% 30.29 in 10.0 mi ENE 9.2 mph - N/A   Clear
3:35 AM 19.4 °F 10.4 °F 13.8 °F 79% 30.26 in 10.0 mi ENE 6.9 mph - N/A   Clear
3:55 AM 19.0 °F 11.1 °F 14.0 °F 81% 30.26 in 10.0 mi East 5.8 mph - N/A   Clear
4:15 AM 18.9 °F 8.8 °F 14.2 °F 82% 30.29 in 10.0 mi East 8.1 mph - N/A   Scattered Clouds
4:35 AM 18.5 °F 9.3 °F 14.0 °F 83% 30.26 in 10.0 mi East 6.9 mph - N/A   Scattered Clouds
4:55 AM 18.7 °F 8.6 °F 13.6 °F 81% 30.27 in 10.0 mi East 8.1 mph - N/A   Clear
5:15 AM 19.2 °F 10.2 °F 13.1 °F 77% 30.27 in 10.0 mi ENE 6.9 mph - N/A   Clear
6:15 AM 18.9 °F 7.2 °F 11.8 °F 74% 30.25 in 10.0 mi East 10.4 mph 17.3 mph N/A   Clear
6:35 AM 19.0 °F 7.5 °F 11.7 °F 73% 30.26 in 10.0 mi East 10.4 mph 16.1 mph N/A   Clear
6:55 AM 19.2 °F 8.4 °F 11.3 °F 71% 30.25 in 10.0 mi East 9.2 mph - N/A   Clear
7:15 AM 19.4 °F 7.2 °F 11.1 °F 70% 30.25 in 10.0 mi East 11.5 mph 16.1 mph N/A   Clear
7:35 AM 19.4 °F 7.9 °F 11.1 °F 70% 30.25 in 10.0 mi East 10.4 mph 16.1 mph N/A   Clear
7:55 AM 19.2 °F 6.4 °F 10.9 °F 70% 30.25 in 10.0 mi East 12.7 mph 19.6 mph N/A   Clear
8:15 AM 19.4 °F 8.6 °F 11.3 °F 71% 30.25 in 10.0 mi East 9.2 mph 19.6 mph N/A   Clear
8:35 AM 19.9 °F 7.9 °F 11.7 °F 70% 30.27 in 10.0 mi ESE 11.5 mph 17.3 mph N/A   Clear
8:55 AM 20.3 °F 6.6 °F 12.0 °F 70% 30.25 in 10.0 mi East 15.0 mph 19.6 mph N/A   Scattered Clouds
9:15 AM 20.3 °F 7.7 °F 11.5 °F 69% 30.24 in 10.0 mi East 12.7 mph 19.6 mph N/A   Clear
9:35 AM 21.0 °F 8.6 °F 11.3 °F 66% 30.24 in 10.0 mi East 12.7 mph 19.6 mph N/A   Clear
9:55 AM 21.2 °F 10.1 °F 11.7 °F 67% 30.23 in 10.0 mi East 10.4 mph 18.4 mph N/A   Clear
10:15 AM 21.7 °F 9.6 °F 12.0 °F 66% 30.23 in 10.0 mi East 12.7 mph 23.0 mph N/A   Clear
10:35 AM 22.1 °F 12.8 °F 12.7 °F 67% 30.24 in 10.0 mi East 8.1 mph 20.7 mph N/A   Clear
10:55 AM 22.6 °F 10.7 °F 12.9 °F 66% 30.22 in 10.0 mi East 12.7 mph 21.9 mph N/A   Clear
11:15 AM 23.0 °F 9.6 °F 13.1 °F 66% 30.21 in 10.0 mi East 16.1 mph 20.7 mph N/A   Clear
11:35 AM 24.1 °F 12.0 °F 13.5 °F 64% 30.19 in 10.0 mi East 13.8 mph 21.9 mph N/A   Clear
11:55 AM 24.3 °F 11.7 °F 13.6 °F 64% 30.16 in 10.0 mi East 15.0 mph 25.3 mph N/A   Clear
12:15 PM 24.3 °F 11.2 °F 14.0 °F 65% 30.16 in 10.0 mi East 16.1 mph 21.9 mph N/A   Clear
12:35 PM 24.6 °F 12.7 °F 14.4 °F 65% 30.11 in 10.0 mi East 13.8 mph 26.5 mph N/A   Clear
12:55 PM 24.8 °F 12.9 °F 14.9 °F 66% 30.10 in 10.0 mi East 13.8 mph 26.5 mph N/A   Clear
1:15 PM 25.7 °F 12.7 °F 15.6 °F 66% 30.11 in 10.0 mi East 17.3 mph 27.6 mph N/A   Scattered Clouds
1:35 PM 25.7 °F 13.1 °F 15.8 °F 66% 30.10 in 10.0 mi East 16.1 mph 24.2 mph N/A   Scattered Clouds
1:55 PM 26.2 °F 13.4 °F 16.3 °F 66% 30.09 in 10.0 mi East 17.3 mph 28.8 mph N/A   Scattered Clouds
2:15 PM 26.4 °F 12.8 °F 16.3 °F 66% 30.07 in 10.0 mi East 19.6 mph 28.8 mph N/A   Scattered Clouds
2:55 PM 26.6 °F 13.8 °F 16.9 °F 67% 30.04 in 10.0 mi East 17.3 mph 25.3 mph N/A   Scattered Clouds
3:15 PM 25.3 °F 12.6 °F 20.1 °F 81% 30.03 in 0.5 mi East 16.1 mph 26.5 mph N/A Snow Light Snow
3:35 PM 24.8 °F 12.4 °F 21.2 °F 86% 29.99 in 0.2 mi East 15.0 mph 24.2 mph N/A Snow Snow
3:55 PM 25.2 °F 13.3 °F 22.8 °F 91% 29.99 in 0.2 mi East 13.8 mph 25.3 mph N/A Snow Snow
4:15 PM 25.5 °F 12.9 °F 23.0 °F 90% 29.97 in 0.2 mi East 16.1 mph 23.0 mph N/A Snow Snow
4:35 PM 26.1 °F 12.7 °F 23.5 °F 90% 29.97 in 0.5 mi East 18.4 mph 25.3 mph N/A Snow Light Snow
4:55 PM 26.1 °F 16.2 °F 23.9 °F 92% 29.96 in 0.8 mi ENE 10.4 mph 19.6 mph N/A Snow Light Snow
5:15 PM 26.2 °F 14.7 °F 23.7 °F 90% 29.96 in 2.5 mi ENE 13.8 mph 20.7 mph N/A Snow Light Snow
5:35 PM 26.2 °F 15.2 °F 23.7 °F 90% 29.96 in 1.2 mi East 12.7 mph 21.9 mph N/A Snow Light Snow
5:55 PM 26.2 °F 15.2 °F 23.9 °F 91% 29.94 in 0.5 mi ENE 12.7 mph 20.7 mph N/A Snow Snow
6:15 PM 25.7 °F 13.1 °F 23.9 °F 93% 29.93 in 1.0 mi ENE 16.1 mph 23.0 mph N/A Snow Snow
6:35 PM 25.7 °F 14.6 °F 23.9 °F 93% 29.93 in 1.2 mi East 12.7 mph 20.7 mph N/A Snow Light Snow
6:55 PM 25.7 °F 13.5 °F 23.9 °F 93% 29.91 in 1.0 mi ENE 15.0 mph 20.7 mph N/A Snow Snow
7:15 PM 25.7 °F 14.6 °F 23.9 °F 93% 29.90 in 1.2 mi ENE 12.7 mph 21.9 mph N/A Snow Light Snow
7:35 PM 25.7 °F 14.0 °F 23.9 °F 93% 29.89 in 1.2 mi ENE 13.8 mph 19.6 mph N/A Snow Light Snow
7:55 PM 25.7 °F 14.0 °F 23.9 °F 93% 29.89 in 1.2 mi ENE 13.8 mph 19.6 mph N/A Snow Light Snow
8:15 PM 26.1 °F 16.2 °F 23.9 °F 92% 29.89 in 1.0 mi ENE 10.4 mph 17.3 mph N/A Snow Snow
8:35 PM 25.7 °F 17.1 °F 23.9 °F 93% 29.89 in 1.0 mi ENE 8.1 mph - N/A Snow Snow
8:55 PM 25.9 °F 17.4 °F 24.3 °F 94% 29.89 in 0.8 mi ENE 8.1 mph 17.3 mph N/A Snow Snow
9:15 PM 25.7 °F 18.0 °F 24.4 °F 95% 29.89 in 0.5 mi ENE 6.9 mph - N/A Snow Heavy Snow
9:35 PM 25.7 °F 16.4 °F 24.4 °F 95% 29.88 in 0.8 mi ENE 9.2 mph - N/A Snow Snow
9:55 PM 26.1 °F 18.4 °F 24.6 °F 94% 29.88 in 0.8 mi ENE 6.9 mph - 0.01 in Snow Snow
10:15 PM 26.2 °F 16.4 °F 24.8 °F 94% 29.87 in 2.5 mi ENE 10.4 mph - N/A Snow Light Snow
10:35 PM 26.4 °F 18.9 °F 24.8 °F 94% 29.86 in 2.5 mi ENE 6.9 mph - N/A Snow Light Snow
10:55 PM 26.4 °F 16.6 °F 24.8 °F 94% 29.86 in 1.0 mi East 10.4 mph 16.1 mph 0.01 in Snow Snow
11:15 PM 26.8 °F 17.7 °F 25.5 °F 95% 29.85 in 1.0 mi East 9.2 mph 17.3 mph N/A Snow Snow
11:35 PM 26.6 °F 15.2 °F 25.5 °F 96% 29.84 in 0.5 mi East 13.8 mph 19.6 mph N/A Snow Snow
11:55 PM 26.4 °F 16.6 °F 25.2 °F 95% 29.83 in 1.0 mi East 10.4 mph - 0.01 in Snow Snow